| time (UTC) | temp F | wind direction | speed MPH | gust MPH | rain 1hr in | rain 24hr in | rain mn in | humidity % | barometer mb |
| 20260502161553 | 51 | 340 | 3.0 | 7.0 | 0.00 | 0.00 | 0.00 | 53 | 1018.8 |
| 20260502151556 | 51 | 360 | 2.0 | 10.0 | 0.00 | 0.00 | 0.00 | 55 | 1019.1 |
| 20260502123051 | 41 | 11 | 0.0 | 0.0 | 0.00 | 0.00 | 0.00 | 77 | 1018.4 |
| 20260502121549 | 41 | 0 | 0.0 | 3.0 | 0.00 | 0.00 | 0.00 | 78 | 1018.3 |
| 20260502120106 | 39 | 0 | 0.0 | 0.0 | 0.00 | 0.00 | 0.00 | 84 | 1017.9 |
| 20260502114621 | 38 | 0 | 0.0 | 0.0 | 0.00 | 0.00 | 0.00 | 82 | 1018.0 |
| 20260502113050 | 38 | 0 | 0.0 | 0.0 | 0.00 | 0.00 | 0.00 | 84 | 1018.1 |
| 20260502111551 | 37 | 0 | 0.0 | 0.0 | 0.00 | 0.00 | 0.00 | 86 | 1018.1 |
| 20260502110050 | 36 | 0 | 0.0 | 0.0 | 0.00 | 0.00 | 0.00 | 88 | 1017.9 |
| 20260502104549 | 36 | 0 | 0.0 | 0.0 | 0.00 | 0.00 | 0.00 | 89 | 1017.8 |
| 20260502103050 | 36 | 0 | 0.0 | 0.0 | 0.00 | 0.00 | 0.00 | 89 | 1017.7 |
| 20260502101614 | 36 | 0 | 0.0 | 0.0 | 0.00 | 0.00 | 0.00 | 88 | 1017.8 |
| 20260502100107 | 36 | 0 | 0.0 | 2.0 | 0.00 | 0.00 | 0.00 | 90 | 1017.7 |
| 20260502070059 | 38 | 0 | 0.0 | 0.0 | 0.00 | 0.00 | 0.00 | 86 | 1017.5 |
| 20260502064614 | 38 | 0 | 0.0 | 0.0 | 0.00 | 0.00 | 0.00 | 85 | 1017.8 |
| 20260502063101 | 38 | 0 | 0.0 | 0.0 | 0.00 | 0.00 | 0.00 | 85 | 1017.8 |
| 20260502061550 | 38 | 0 | 0.0 | 0.0 | 0.00 | 0.00 | 0.00 | 85 | 1018.0 |
| 20260502060048 | 38 | 1 | 0.0 | 2.0 | 0.00 | 0.00 | 0.00 | 85 | 1018.1 |
| 20260502054549 | 38 | 0 | 0.0 | 0.0 | 0.00 | 0.00 | 0.00 | 84 | 1018.3 |
| 20260502053057 | 39 | 0 | 0.0 | 0.0 | 0.00 | 0.00 | 0.00 | 82 | 1018.3 |
| 20260502051553 | 40 | 0 | 0.0 | 2.0 | 0.00 | 0.00 | 0.00 | 81 | 1018.2 |
| 20260502050054 | 40 | 1 | 0.0 | 3.0 | 0.00 | 0.00 | 0.00 | 81 | 1018.2 |
| 20260502044610 | 40 | 0 | 0.0 | 2.0 | 0.00 | 0.00 | 0.00 | 80 | 1018.4 |
| 20260502043122 | 40 | 0 | 0.0 | 0.0 | 0.00 | 0.00 | 0.00 | 80 | 1018.5 |
| 20260502041559 | 40 | 0 | 0.0 | 0.0 | 0.00 | 0.00 | 0.00 | 79 | 1018.5 |
| 20260502040056 | 40 | 0 | 0.0 | 0.0 | 0.00 | 0.00 | 0.00 | 80 | 1018.4 |
| 20260502034550 | 40 | 0 | 0.0 | 0.0 | 0.00 | 0.00 | 0.00 | 79 | 1018.2 |
| 20260502033052 | 40 | 0 | 0.0 | 0.0 | 0.00 | 0.00 | 0.00 | 80 | 1018.1 |
| 20260502031551 | 41 | 0 | 0.0 | 0.0 | 0.00 | 0.00 | 0.00 | 78 | 1018.3 |
| 20260502030058 | 43 | 0 | 0.0 | 0.0 | 0.00 | 0.00 | 0.00 | 75 | 1018.3 |
| 20260502024553 | 43 | 0 | 0.0 | 0.0 | 0.00 | 0.00 | 0.00 | 74 | 1018.4 |
| 20260502023052 | 42 | 0 | 0.0 | 0.0 | 0.00 | 0.00 | 0.00 | 75 | 1018.3 |
| 20260502021548 | 43 | 0 | 0.0 | 0.0 | 0.00 | 0.00 | 0.00 | 74 | 1017.9 |
| 20260502020054 | 44 | 0 | 0.0 | 0.0 | 0.00 | 0.00 | 0.00 | 71 | 1017.8 |
| 20260502014551 | 45 | 0 | 0.0 | 0.0 | 0.00 | 0.00 | 0.00 | 69 | 1017.6 |
| 20260502013052 | 45 | 0 | 0.0 | 0.0 | 0.00 | 0.00 | 0.00 | 68 | 1017.2 |
| 20260502011556 | 46 | 0 | 0.0 | 1.0 | 0.00 | 0.00 | 0.00 | 67 | 1016.9 |
| 20260502010052 | 47 | 0 | 0.0 | 2.0 | 0.00 | 0.00 | 0.00 | 65 | 1017.1 |
| 20260502004546 | 47 | 0 | 0.0 | 0.0 | 0.00 | 0.00 | 0.00 | 64 | 1016.8 |
| 20260502003046 | 49 | 0 | 0.0 | 2.0 | 0.00 | 0.00 | 0.00 | 62 | 1016.2 |
| 20260502001547 | 50 | 36 | 2.0 | 7.0 | 0.00 | 0.00 | 0.00 | 58 | 1015.7 |
| 20260502000051 | 51 | 21 | 5.0 | 11.0 | 0.00 | 0.00 | 0.00 | 57 | 1015.5 |
| 20260501234548 | 52 | 358 | 4.0 | 7.0 | 0.00 | 0.00 | 0.00 | 58 | 1015.6 |
| 20260501233047 | 52 | 15 | 3.0 | 8.0 | 0.00 | 0.00 | 0.00 | 57 | 1015.8 |
| 20260501231551 | 51 | 355 | 4.0 | 8.0 | 0.00 | 0.00 | 0.00 | 58 | 1016.0 |
| 20260501230048 | 53 | 4 | 4.0 | 9.0 | 0.00 | 0.00 | 0.00 | 56 | 1015.6 |
| 20260501224550 | 53 | 6 | 5.0 | 12.0 | 0.00 | 0.00 | 0.00 | 59 | 1015.7 |
| 20260501223051 | 54 | 1 | 5.0 | 15.0 | 0.00 | 0.00 | 0.00 | 57 | 1015.5 |
| 20260501221550 | 55 | 20 | 4.0 | 11.0 | 0.00 | 0.00 | 0.00 | 52 | 1015.3 |
| 20260501220100 | 55 | 300 | 5.0 | 12.0 | 0.00 | 0.00 | 0.00 | 53 | 1015.4 |
| 20260501214553 | 55 | 344 | 4.0 | 10.0 | 0.00 | 0.00 | 0.00 | 55 | 1015.1 |
| 20260501213050 | 54 | 1 | 4.0 | 11.0 | 0.00 | 0.00 | 0.00 | 54 | 1015.0 |
| 20260501211557 | 54 | 59 | 2.0 | 8.0 | 0.00 | 0.00 | 0.00 | 56 | 1015.3 |
| 20260501210049 | 53 | 323 | 3.0 | 11.0 | 0.00 | 0.00 | 0.00 | 57 | 1015.1 |
| 20260501204600 | 54 | 332 | 3.0 | 11.0 | 0.00 | 0.00 | 0.00 | 56 | 1015.1 |
| 20260501203046 | 55 | 303 | 2.0 | 12.0 | 0.00 | 0.00 | 0.00 | 57 | 1015.1 |
| 20260501201547 | 55 | 307 | 5.0 | 10.0 | 0.00 | 0.00 | 0.00 | 55 | 1015.1 |
| 20260501200050 | 55 | 355 | 4.0 | 12.0 | 0.00 | 0.00 | 0.00 | 56 | 1015.0 |
| 20260501194550 | 55 | 288 | 4.0 | 14.0 | 0.00 | 0.00 | 0.00 | 57 | 1015.0 |
| 20260501193045 | 54 | 287 | 8.0 | 18.0 | 0.00 | 0.00 | 0.00 | 55 | 1014.9 |
| 20260501191548 | 55 | 315 | 3.0 | 12.0 | 0.00 | 0.00 | 0.00 | 58 | 1014.7 |
| 20260501190055 | 56 | 360 | 5.0 | 12.0 | 0.00 | 0.00 | 0.00 | 61 | 1015.1 |
| 20260501184552 | 54 | 360 | 4.0 | 18.0 | 0.00 | 0.00 | 0.00 | 59 | 1015.1 |
| 20260501183105 | 55 | 299 | 7.0 | 12.0 | 0.00 | 0.00 | 0.00 | 54 | 1015.0 |
| 20260501181550 | 55 | 351 | 4.0 | 15.0 | 0.00 | 0.00 | 0.00 | 58 | 1014.9 |
| 20260501180057 | 55 | 360 | 8.0 | 18.0 | 0.00 | 0.00 | 0.00 | 53 | 1014.6 |
| 20260501174551 | 57 | 265 | 9.0 | 15.0 | 0.00 | 0.00 | 0.00 | 47 | 1014.5 |
| 20260501173054 | 55 | 331 | 5.0 | 15.0 | 0.00 | 0.00 | 0.00 | 58 | 1014.5 |
| 20260501171557 | 56 | 278 | 5.0 | 11.0 | 0.00 | 0.00 | 0.00 | 59 | 1014.4 |
| 20260501170049 | 53 | 326 | 7.0 | 14.0 | 0.00 | 0.00 | 0.00 | 62 | 1014.4 |
| 20260501164546 | 53 | 360 | 4.0 | 11.0 | 0.00 | 0.00 | 0.00 | 69 | 1014.4 |
| 20260501163049 | 54 | 262 | 5.0 | 10.0 | 0.00 | 0.00 | 0.00 | 68 | 1014.2 |